Weather Roundup
Issued by NWS

Home | Current Version | Previous Version | Text Only | Print | Product List | Glossary On
Versions: 1 2 3 4 5 6 7 8 9 10 11 12 13 14 15 16 17 18 19 20 21 22 23 24 25 26 27 28 29 30 31 32 33 34 35 36 37 38 39 40 41 42 43 44 45 46 47 48 49 50
000
NZUS93 KARX 221710
HRRWXR

CURRENT HOURLY OBSERVATIONS ACROSS
MUCH OF THE UPPER MISSISSIPPI VALLEY
NATIONAL WEATHER SERVICE LA CROSSE WI
1200 PM CDT SAT JUL 22 2017


...SOUTHEAST MINNESOTA...


CITY           SKY/WX    TMP DP  RH WIND       PRES   REMARKS
ROCHESTER      CLOUDY    75  70  84 E5        29.87F
ROCHESTER/MAYO PTSUNNY   75  69  79 NE3       29.87F
WINONA         CLOUDY    73  68  83 NW5       29.86S
AUSTIN         PTSUNNY   75  70  83 E6        29.87F
ALBERT LEA     CLOUDY    73  70  88 E6        29.88S
DODGE CENTER   MOSUNNY   77  68  73 NE6       29.86F
PRESTON        CLOUDY    70  68  91 N3        29.89F
OWATONNA       MOSUNNY   79  70  73 CALM      29.85F
FARIBAULT      SUNNY     81  68  65 CALM      29.84F
$$

...ELSEWHERE IN MINNESOTA...


CITY           SKY/WX    TMP DP  RH WIND       PRES   REMARKS
MINNEAPOLIS    MOSUNNY   84  68  58 CALM      29.82S
INTNL FALLS    CLOUDY    71  64  78 CALM      29.79S
DULUTH         CLOUDY    69  64  84 SE8       29.84R
RED WING       SUNNY     82  64  54 CALM      29.81F
REDWOOD FALLS  SUNNY     83  69  62 W12       29.85S
MANKATO        SUNNY     78  70  76 VRB3      29.86S
WORTHINGTON    MOSUNNY   80  71  74 W8        29.91S
FAIRMONT       CLOUDY    78  72  81 N3        29.88S
$$

...SOUTHWEST WISCONSIN...


CITY           SKY/WX    TMP DP  RH WIND       PRES   REMARKS
LA CROSSE      CLOUDY    76  71  85 N5        29.85F
PRAIRIE DU CHI CLOUDY    78  70  75 N3        29.82F
BOSCOBEL       CLOUDY    79  72  79 NW5       29.84F
LONE ROCK      CLOUDY    75  70  84 NW5       29.84F
PLATTEVILLE    CLOUDY    79  75  88 NW6       29.85S
FORT MC COY    CLOUDY    71  67  88 NW5       29.87S
CAMP DOUGLAS   CLOUDY    73  72  94 CALM      29.86S
MAUSTON-NEW LI CLOUDY    71  69  92 NW5       29.86S FOG
VIROQUA        CLOUDY    73  72  98 CALM      29.88S
WIS DELLS      CLOUDY    72  68  88 NW3       29.87R
$$

...ELSEWHERE IN WISCONSIN...


CITY           SKY/WX    TMP DP  RH WIND       PRES   REMARKS
MILWAUKEE      LGT RAIN  76  70  82 NW12      29.84R
MADISON        CLOUDY    73  70  90 N6        29.84F
GREEN BAY      CLOUDY    77  67  71 CALM      29.83F
EAU CLAIRE     SUNNY     82  66  58 CALM      29.83S
BLACK RVR FLS  CLOUDY    77  71  83 CALM      29.85F
MEDFORD        MOSUNNY   76  65  67 W5        29.86R
WAUSAU         SUNNY     77  66  68 SW6       29.82F
WIS RAPIDS     PTSUNNY   76  69  79 VRB3      29.86F
MARSHFIELD     MOSUNNY   79  67  66 CALM      29.84F
RICE LAKE      SUNNY     79  68  69 CALM      29.85S
$$

...NORTHEAST IOWA...


CITY           SKY/WX    TMP DP  RH WIND       PRES   REMARKS
WATERLOO       CLOUDY    77  70  79 CALM      29.83F
DUBUQUE        CLOUDY    79  69  71 S6        29.85S
DECORAH        CLOUDY    72  72 100 NE7       29.86S FOG
MASON CITY     PTSUNNY   76  71  85 N9        29.89F
CHARLES CITY   CLOUDY    73  73 100 N8        29.87S
OELWEIN          N/A    N/A N/A N/A MISG        N/A
$$

...ELSEWHERE IN IOWA...


CITY           SKY/WX    TMP DP  RH WIND       PRES   REMARKS
DES MOINES     PTSUNNY   88  76  67 N8        29.81R HX  99
IOWA CITY      CLOUDY    81  72  74 CALM      29.84S
FORT DODGE     CLOUDY    75  72  88 N7        29.89S
MARSHALLTOWN   CLOUDY    78  73  84 NE7       29.84S
CEDAR RAPIDS   CLOUDY    78  73  84 CALM      29.84R
$$

...NORTHERN ILLINOIS...


CITY           SKY/WX    TMP DP  RH WIND       PRES   REMARKS
CHICAGO-OHARE  CLOUDY    79  68  69 NW7       29.83S
CHICAGO-MIDWAY CLOUDY    80  68  66 VRB6      29.84R
MOLINE         CLOUDY    81  70  69 S6        29.83S
ROCKFORD       CLOUDY    83  69  62 W10       29.85R
PEORIA         CLOUDY    78  70  76 S7        29.84R
$$

NOTE: "FAIR" INDICATES FEW OR NO CLOUDS BELOW 12,000 FEET WITH NO
SIGNIFICANT WEATHER AND/OR OBSTRUCTIONS TO VISIBILITY. WIND
SPEEDS ARE IN MILES-PER-HOUR.




USA.gov is the U.S. government's official web portal to all federal, state and local government web resources and services.